Forside
METAR-TAF:

METAR-TAF

Lufthavne :

Albertus Airport

Freeport, Illinois, USA

Breddekreds: 42-14-47N, længdekreds: 089-34-56W, højde: 262 m

Aktuelle vejr

Denne rapport blev lavet for 18 minutter siden, kl. 02:15 UTC
Vind 4 kt fra nordvest
Temperatur 13°C
Fugtighed 58%
Tryk 1015 hPa
Sigt: 16.1 km
skyfri

METAR: KFEP 220215Z AUTO 32004KT 10SM CLR 13/05 A2996 RMK AO2 T01280047

Tid: 21:33 (02:33 UTC)


TAF: fraværende

Vejrobservationer og prognoser fra mere end 4000 lufthavne (METAR og TAF).

De gule og røde prikker repræsenterer de meteorologiske stationer.

Flyt musen over at se navnet på stationen.

Så klik over at se vejr observationer og prognoser.

At skifte det kort: Klik på de grønne knapper med et sort kors for at zoome ind; på den grønne knap med en bindestreg for at zoome ud; eller på de grønne pile for tilstødende kort.


METAR-TAF: